Tracking 29892 objects as of 21-Nov-2024
HD Live streaming from Space Station
objects crossing your sky now

IRIDIUM 33 DEB

Track IRIDIUM 33 DEB now!
10-day predictions


NORAD ID: 34071
Int'l Code: 1997-051CE
Perigee: 739.0 km
Apogee: 749.4 km
Inclination: 86.3 °
Period: 99.6 minutes
Semi major axis: 7115 km
RCS: 0.3738 m2 (medium)
Launch date: September 14, 1997
Source: United States (US)
Launch site: TYURATAM MISSILE AND SPACE COMPLEX (TTMTR)

Note: This is SATELLITE DEBRIS
Your satellite tracking list
Your tracking list is empty




NASA's NSSDC Master Catalog

Two Line Element Set (TLE):
1 34071U 97051CE  24325.71925430  .00003752  00000-0  10370-2 0  9994
2 34071  86.3498 185.6160 0007296 335.8022  24.2837 14.46509283827330
Source of the keplerian elements: AFSPC